| time (UTC) | temp F | wind direction | speed knots | gust knots | rain 1hr in | rain 24hr in | rain mn in | humidity % | barometer mb |
| 20260506164358 | 79 | 0.0 | 0.0 | 0.00 | 0.00 | 0.00 | 22 | 993.6 | |
| 20260506163757 | 79 | 0.0 | 0.0 | 0.00 | 0.00 | 0.00 | 21 | 993.6 | |
| 20260506163156 | 79 | 0.0 | 0.0 | 0.00 | 0.00 | 0.00 | 21 | 993.6 | |
| 20260506162555 | 80 | 0.0 | 0.0 | 0.00 | 0.00 | 0.00 | 21 | 993.6 | |
| 20260506161953 | 80 | 0.0 | 0.0 | 0.00 | 0.00 | 0.00 | 21 | 993.5 | |
| 20260506161352 | 80 | 0.0 | 0.0 | 0.00 | 0.00 | 0.00 | 21 | 993.5 | |
| 20260506160751 | 81 | 0.0 | 0.0 | 0.00 | 0.00 | 0.00 | 21 | 993.6 | |
| 20260506160150 | 81 | 0.0 | 0.0 | 0.00 | 0.00 | 0.00 | 21 | 993.5 | |
| 20260506155549 | 82 | 0.0 | 0.0 | 0.00 | 0.00 | 0.00 | 21 | 993.5 | |
| 20260506154948 | 82 | 0.0 | 0.0 | 0.00 | 0.00 | 0.00 | 21 | 993.5 | |
| 20260506154346 | 82 | 0.0 | 0.0 | 0.00 | 0.00 | 0.00 | 21 | 993.6 | |
| 20260506153745 | 83 | 0.0 | 0.0 | 0.00 | 0.00 | 0.00 | 22 | 993.6 | |
| 20260506153144 | 83 | 0.0 | 0.0 | 0.00 | 0.00 | 0.00 | 20 | 993.6 | |
| 20260506152543 | 84 | 0.0 | 0.0 | 0.00 | 0.00 | 0.00 | 20 | 993.6 | |
| 20260506151942 | 84 | 0.0 | 0.0 | 0.00 | 0.00 | 0.00 | 20 | 993.7 | |
| 20260506151340 | 85 | 0.0 | 0.0 | 0.00 | 0.00 | 0.00 | 19 | 993.6 | |
| 20260506150739 | 85 | 0.0 | 0.0 | 0.00 | 0.00 | 0.00 | 19 | 993.6 | |
| 20260506150138 | 86 | 0.0 | 0.0 | 0.00 | 0.00 | 0.00 | 19 | 993.7 | |
| 20260506145537 | 86 | 0.0 | 0.0 | 0.00 | 0.00 | 0.00 | 18 | 993.7 | |
| 20260506144936 | 86 | 0.0 | 0.0 | 0.00 | 0.00 | 0.00 | 18 | 993.8 | |
| 20260506144334 | 87 | 0.0 | 0.0 | 0.00 | 0.00 | 0.00 | 18 | 993.8 | |
| 20260506143733 | 87 | 0.0 | 0.0 | 0.00 | 0.00 | 0.00 | 18 | 993.8 | |
| 20260506143132 | 88 | 0.0 | 0.0 | 0.00 | 0.00 | 0.00 | 18 | 993.7 | |
| 20260506142531 | 88 | 0.0 | 0.0 | 0.00 | 0.00 | 0.00 | 19 | 993.7 | |
| 20260506141930 | 88 | 0.0 | 0.0 | 0.00 | 0.00 | 0.00 | 18 | 993.8 | |
| 20260506141328 | 89 | 0.0 | 0.0 | 0.00 | 0.00 | 0.00 | 17 | 993.8 | |
| 20260506140727 | 89 | 0.0 | 0.0 | 0.00 | 0.00 | 0.00 | 16 | 993.9 | |
| 20260506140126 | 89 | 0.0 | 0.0 | 0.00 | 0.00 | 0.00 | 17 | 993.9 | |
| 20260506135525 | 89 | 0.0 | 0.0 | 0.00 | 0.00 | 0.00 | 16 | 994.0 | |
| 20260506134924 | 89 | 0.0 | 0.0 | 0.00 | 0.00 | 0.00 | 16 | 994.0 | |
| 20260506134322 | 89 | 0.0 | 0.0 | 0.00 | 0.00 | 0.00 | 17 | 994.0 | |
| 20260506133721 | 89 | 0.0 | 0.0 | 0.00 | 0.00 | 0.00 | 16 | 994.0 | |
| 20260506133120 | 90 | 0.0 | 0.0 | 0.00 | 0.00 | 0.00 | 15 | 994.0 | |
| 20260506132519 | 90 | 0.0 | 0.0 | 0.00 | 0.00 | 0.00 | 16 | 994.0 | |
| 20260506131917 | 90 | 0.0 | 0.0 | 0.00 | 0.00 | 0.00 | 16 | 994.1 | |
| 20260506131316 | 91 | 0.0 | 0.0 | 0.00 | 0.00 | 0.00 | 16 | 994.1 | |
| 20260506130715 | 91 | 0.0 | 0.0 | 0.00 | 0.00 | 0.00 | 16 | 994.1 | |
| 20260506130114 | 91 | 0.0 | 0.0 | 0.00 | 0.00 | 0.00 | 16 | 994.2 | |
| 20260506125513 | 91 | 0.0 | 0.0 | 0.00 | 0.00 | 0.00 | 15 | 994.3 | |
| 20260506124912 | 91 | 0.0 | 0.0 | 0.00 | 0.00 | 0.00 | 16 | 994.2 | |
| 20260506124310 | 91 | 0.0 | 0.0 | 0.00 | 0.00 | 0.00 | 16 | 994.3 | |
| 20260506123709 | 92 | 0.0 | 0.0 | 0.00 | 0.00 | 0.00 | 17 | 994.4 | |
| 20260506123108 | 92 | 0.0 | 0.0 | 0.00 | 0.00 | 0.00 | 17 | 994.4 | |
| 20260506122507 | 91 | 0.0 | 0.0 | 0.00 | 0.00 | 0.00 | 16 | 994.4 | |
| 20260506121905 | 91 | 0.0 | 0.0 | 0.00 | 0.00 | 0.00 | 18 | 994.4 | |
| 20260506121304 | 91 | 0.0 | 0.0 | 0.00 | 0.00 | 0.00 | 15 | 994.5 | |
| 20260506120703 | 92 | 0.0 | 0.0 | 0.00 | 0.00 | 0.00 | 16 | 994.6 | |
| 20260506115501 | 92 | 0.0 | 0.0 | 0.00 | 0.00 | 0.00 | 15 | 994.6 | |
| 20260506114900 | 92 | 0.0 | 0.0 | 0.00 | 0.00 | 0.00 | 16 | 994.6 | |
| 20260506114258 | 92 | 0.0 | 0.0 | 0.00 | 0.00 | 0.00 | 15 | 994.7 | |
| 20260506113657 | 92 | 0.0 | 0.0 | 0.00 | 0.00 | 0.00 | 15 | 994.6 | |
| 20260506113056 | 92 | 0.0 | 0.0 | 0.00 | 0.00 | 0.00 | 17 | 994.7 | |
| 20260506112455 | 92 | 0.0 | 0.0 | 0.00 | 0.00 | 0.00 | 16 | 994.7 | |
| 20260506111853 | 93 | 0.0 | 0.0 | 0.00 | 0.00 | 0.00 | 16 | 994.6 | |
| 20260506111252 | 93 | 0.0 | 0.0 | 0.00 | 0.00 | 0.00 | 17 | 994.7 | |
| 20260506110651 | 92 | 0.0 | 0.0 | 0.00 | 0.00 | 0.00 | 17 | 994.8 | |
| 20260506110050 | 91 | 0.0 | 0.0 | 0.00 | 0.00 | 0.00 | 17 | 994.8 | |
| 20260506105449 | 91 | 0.0 | 0.0 | 0.00 | 0.00 | 0.00 | 15 | 994.8 | |
| 20260506104847 | 92 | 0.0 | 0.0 | 0.00 | 0.00 | 0.00 | 16 | 994.8 | |
| 20260506104246 | 92 | 0.0 | 0.0 | 0.00 | 0.00 | 0.00 | 17 | 994.8 | |
| 20260506103645 | 92 | 0.0 | 0.0 | 0.00 | 0.00 | 0.00 | 17 | 994.8 | |
| 20260506103044 | 92 | 0.0 | 0.0 | 0.00 | 0.00 | 0.00 | 17 | 994.8 | |
| 20260506102443 | 92 | 0.0 | 0.0 | 0.00 | 0.00 | 0.00 | 17 | 994.8 | |
| 20260506101841 | 93 | 0.0 | 0.0 | 0.00 | 0.00 | 0.00 | 17 | 994.9 | |
| 20260506101240 | 93 | 0.0 | 0.0 | 0.00 | 0.00 | 0.00 | 17 | 994.8 | |
| 20260506100639 | 93 | 0.0 | 0.0 | 0.00 | 0.00 | 0.00 | 17 | 994.8 | |
| 20260506100038 | 93 | 0.0 | 0.0 | 0.00 | 0.00 | 0.00 | 17 | 994.9 | |
| 20260506095437 | 92 | 0.0 | 0.0 | 0.00 | 0.00 | 0.00 | 19 | 994.8 | |
| 20260506094835 | 92 | 0.0 | 0.0 | 0.00 | 0.00 | 0.00 | 18 | 994.7 | |
| 20260506094234 | 92 | 0.0 | 0.0 | 0.00 | 0.00 | 0.00 | 18 | 994.9 | |
| 20260506093633 | 92 | 0.0 | 0.0 | 0.00 | 0.00 | 0.00 | 18 | 994.9 | |
| 20260506093032 | 92 | 0.0 | 0.0 | 0.00 | 0.00 | 0.00 | 17 | 994.8 |